| time (UTC) | temp C | wind direction | speed KPH | gust KPH | rain 1hr cm | rain 24hr cm | rain mn cm | humidity % | barometer mb |
| 20260906114045 | 25 | 10 | 0.0 | 1.6 | 0.00 | 0.00 | 0.00 | 92 | 1010.9 |
| 20260906113544 | 25 | 144 | 0.0 | 1.6 | 0.00 | 0.00 | 0.00 | 91 | 1011.0 |
| 20260906113039 | 25 | 20 | 1.6 | 1.6 | 0.00 | 0.00 | 0.00 | 91 | 1010.9 |
| 20260906112534 | 25 | 318 | 0.0 | 0.0 | 0.00 | 0.00 | 0.00 | 91 | 1010.8 |
| 20260906112031 | 25 | 110 | 0.0 | 1.6 | 0.00 | 0.00 | 0.00 | 91 | 1010.6 |
| 20260906111530 | 25 | 162 | 1.6 | 3.2 | 0.00 | 0.00 | 0.00 | 91 | 1010.6 |
| 20260906111026 | 25 | 310 | 3.2 | 4.8 | 0.00 | 0.00 | 0.00 | 91 | 1010.4 |
| 20260906110525 | 25 | 359 | 0.0 | 1.6 | 0.00 | 0.00 | 0.00 | 91 | 1010.1 |
| 20260906110025 | 25 | 291 | 0.0 | 1.6 | 0.00 | 0.00 | 0.00 | 91 | 1010.2 |
| 20260906105520 | 25 | 100 | 0.0 | 3.2 | 0.00 | 0.00 | 0.00 | 91 | 1010.0 |
| 20260906105016 | 25 | 165 | 1.6 | 3.2 | 0.00 | 0.00 | 0.00 | 91 | 1010.1 |
| 20260906104514 | 25 | 176 | 1.6 | 4.8 | 0.00 | 0.00 | 0.00 | 91 | 1010.1 |
| 20260906104009 | 26 | 135 | 3.2 | 4.8 | 0.00 | 0.00 | 0.00 | 90 | 1009.9 |
| 20260906103507 | 26 | 178 | 0.0 | 3.2 | 0.00 | 0.00 | 0.00 | 90 | 1009.9 |
| 20260906103003 | 26 | 79 | 3.2 | 4.8 | 0.00 | 0.00 | 0.00 | 90 | 1009.9 |
| 20260906102503 | 26 | 114 | 1.6 | 3.2 | 0.00 | 0.00 | 0.00 | 90 | 1009.9 |
| 20260906102003 | 26 | 198 | 0.0 | 3.2 | 0.00 | 0.00 | 0.00 | 90 | 1010.0 |
| 20260906101457 | 26 | 80 | 0.0 | 3.2 | 0.00 | 0.00 | 0.00 | 90 | 1009.8 |
| 20260906100952 | 26 | 164 | 1.6 | 3.2 | 0.00 | 0.00 | 0.00 | 90 | 1009.7 |
| 20260906100447 | 26 | 94 | 0.0 | 4.8 | 0.00 | 0.00 | 0.00 | 90 | 1009.6 |
| 20260906095942 | 26 | 116 | 0.0 | 1.6 | 0.00 | 0.00 | 0.00 | 90 | 1009.7 |
| 20260906095437 | 26 | 96 | 1.6 | 3.2 | 0.00 | 0.00 | 0.00 | 90 | 1009.6 |
| 20260906094932 | 26 | 123 | 1.6 | 4.8 | 0.00 | 0.00 | 0.00 | 90 | 1009.8 |
| 20260906094426 | 26 | 301 | 3.2 | 4.8 | 0.00 | 0.00 | 0.00 | 90 | 1009.7 |
| 20260906093922 | 26 | 318 | 0.0 | 3.2 | 0.00 | 0.00 | 0.00 | 90 | 1009.9 |
| 20260906093418 | 26 | 46 | 0.0 | 8.0 | 0.00 | 0.00 | 0.00 | 90 | 1009.7 |
| 20260906092913 | 26 | 289 | 3.2 | 4.8 | 0.00 | 0.00 | 0.00 | 90 | 1009.9 |
| 20260906092413 | 26 | 40 | 1.6 | 4.8 | 0.00 | 0.00 | 0.00 | 90 | 1009.9 |
| 20260906091908 | 26 | 189 | 0.0 | 3.2 | 0.00 | 0.00 | 0.00 | 90 | 1009.5 |
| 20260906091404 | 26 | 56 | 0.0 | 1.6 | 0.00 | 0.00 | 0.00 | 90 | 1009.7 |
| 20260906090900 | 26 | 110 | 0.0 | 3.2 | 0.00 | 0.00 | 0.00 | 89 | 1009.8 |
| 20260906090400 | 26 | 223 | 0.0 | 1.6 | 0.00 | 0.00 | 0.00 | 89 | 1009.6 |
| 20260906085854 | 26 | 167 | 0.0 | 1.6 | 0.00 | 0.00 | 0.00 | 89 | 1009.9 |
| 20260906085354 | 26 | 85 | 0.0 | 3.2 | 0.00 | 0.00 | 0.00 | 89 | 1009.6 |
| 20260906084848 | 26 | 81 | 1.6 | 3.2 | 0.00 | 0.00 | 0.00 | 89 | 1009.6 |
| 20260906084348 | 26 | 61 | 0.0 | 3.2 | 0.00 | 0.00 | 0.00 | 89 | 1009.8 |
| 20260906083843 | 26 | 297 | 3.2 | 3.2 | 0.00 | 0.00 | 0.00 | 88 | 1009.8 |
| 20260906083338 | 26 | 123 | 3.2 | 3.2 | 0.00 | 0.00 | 0.00 | 89 | 1009.4 |
| 20260906082832 | 26 | 125 | 0.0 | 4.8 | 0.00 | 0.00 | 0.00 | 88 | 1009.5 |
| 20260906082327 | 26 | 291 | 0.0 | 3.2 | 0.00 | 0.00 | 0.00 | 88 | 1009.5 |
| 20260906081823 | 26 | 154 | 4.8 | 4.8 | 0.00 | 0.00 | 0.00 | 88 | 1009.4 |
| 20260906081319 | 26 | 18 | 1.6 | 4.8 | 0.00 | 0.00 | 0.00 | 88 | 1009.6 |
| 20260906080815 | 26 | 280 | 0.0 | 3.2 | 0.00 | 0.00 | 0.00 | 88 | 1009.6 |
| 20260906080311 | 26 | 18 | 0.0 | 0.0 | 0.00 | 0.00 | 0.00 | 88 | 1009.5 |
| 20260906075810 | 26 | 271 | 0.0 | 3.2 | 0.00 | 0.00 | 0.00 | 89 | 1009.5 |
| 20260906075310 | 26 | 36 | 0.0 | 3.2 | 0.00 | 0.00 | 0.00 | 89 | 1009.6 |
| 20260906074806 | 26 | 274 | 0.0 | 3.2 | 0.00 | 0.00 | 0.00 | 89 | 1009.6 |
| 20260906074305 | 26 | 70 | 0.0 | 1.6 | 0.00 | 0.00 | 0.00 | 89 | 1009.7 |
| 20260906073804 | 26 | 227 | 0.0 | 0.0 | 0.00 | 0.00 | 0.00 | 89 | 1009.5 |
| 20260906073259 | 26 | 31 | 0.0 | 1.6 | 0.00 | 0.00 | 0.00 | 89 | 1009.6 |
| 20260906072755 | 26 | 250 | 0.0 | 1.6 | 0.00 | 0.00 | 0.00 | 89 | 1009.6 |
| 20260906072250 | 26 | 144 | 0.0 | 1.6 | 0.00 | 0.00 | 0.00 | 88 | 1009.6 |
| 20260906071747 | 26 | 86 | 0.0 | 1.6 | 0.00 | 0.00 | 0.00 | 88 | 1009.5 |
| 20260906071246 | 26 | 49 | 0.0 | 4.8 | 0.00 | 0.00 | 0.00 | 88 | 1009.7 |
| 20260906070743 | 26 | 70 | 0.0 | 3.2 | 0.00 | 0.00 | 0.00 | 88 | 1009.7 |
| 20260906070238 | 26 | 9 | 1.6 | 3.2 | 0.00 | 0.00 | 0.00 | 88 | 1009.5 |
| 20260906065738 | 26 | 324 | 1.6 | 3.2 | 0.00 | 0.00 | 0.00 | 88 | 1009.7 |
| 20260906065233 | 26 | 198 | 0.0 | 1.6 | 0.00 | 0.00 | 0.00 | 88 | 1009.7 |
| 20260906064729 | 26 | 281 | 4.8 | 4.8 | 0.00 | 0.00 | 0.00 | 88 | 1009.7 |
| 20260906064224 | 26 | 85 | 0.0 | 1.6 | 0.00 | 0.00 | 0.00 | 89 | 1009.5 |
| 20260906063719 | 26 | 125 | 1.6 | 1.6 | 0.00 | 0.00 | 0.00 | 89 | 1009.7 |
| 20260906063215 | 26 | 275 | 0.0 | 3.2 | 0.00 | 0.00 | 0.00 | 88 | 1009.9 |
| 20260906062710 | 26 | 123 | 0.0 | 4.8 | 0.00 | 0.00 | 0.00 | 88 | 1009.6 |
| 20260906062209 | 26 | 211 | 0.0 | 3.2 | 0.00 | 0.00 | 0.00 | 88 | 1009.8 |
| 20260906061705 | 26 | 198 | 0.0 | 3.2 | 0.00 | 0.00 | 0.00 | 88 | 1010.1 |
| 20260906061201 | 27 | 164 | 1.6 | 3.2 | 0.00 | 0.00 | 0.00 | 88 | 1009.9 |
| 20260906060657 | 27 | 262 | 3.2 | 3.2 | 0.00 | 0.00 | 0.00 | 87 | 1010.2 |
| 20260906060154 | 27 | 2 | 0.0 | 1.6 | 0.00 | 0.00 | 0.00 | 87 | 1009.9 |
| 20260906055649 | 27 | 162 | 1.6 | 3.2 | 0.00 | 0.00 | 0.00 | 87 | 1009.9 |
| 20260906055144 | 27 | 223 | 0.0 | 4.8 | 0.00 | 0.00 | 0.00 | 87 | 1010.3 |
| 20260906054640 | 27 | 138 | 3.2 | 3.2 | 0.00 | 0.00 | 0.00 | 86 | 1010.1 |
| 20260906054135 | 27 | 315 | 0.0 | 3.2 | 0.00 | 0.00 | 0.00 | 86 | 1010.4 |
| 20260906053631 | 27 | 89 | 0.0 | 1.6 | 0.00 | 0.00 | 0.00 | 86 | 1010.2 |
| 20260906053126 | 27 | 335 | 0.0 | 3.2 | 0.00 | 0.00 | 0.00 | 86 | 1010.3 |
| 20260906052621 | 27 | 39 | 1.6 | 3.2 | 0.00 | 0.00 | 0.00 | 86 | 1010.1 |
| 20260906052118 | 27 | 202 | 1.6 | 3.2 | 0.00 | 0.00 | 0.00 | 86 | 1010.1 |
| 20260906051614 | 27 | 321 | 3.2 | 3.2 | 0.00 | 0.00 | 0.00 | 86 | 1010.1 |
| 20260906051109 | 27 | 306 | 3.2 | 4.8 | 0.00 | 0.00 | 0.00 | 86 | 1010.1 |
| 20260906050604 | 27 | 135 | 1.6 | 4.8 | 0.00 | 0.00 | 0.00 | 86 | 1010.2 |
| 20260906050059 | 27 | 315 | 0.0 | 1.6 | 0.00 | 0.00 | 0.00 | 86 | 1010.1 |
| 20260906045557 | 27 | 153 | 3.2 | 3.2 | 0.00 | 0.00 | 0.00 | 86 | 1010.2 |
| 20260906045053 | 27 | 131 | 0.0 | 3.2 | 0.00 | 0.00 | 0.00 | 86 | 1010.6 |
| 20260906044549 | 27 | 80 | 1.6 | 6.4 | 0.00 | 0.00 | 0.00 | 86 | 1010.2 |
| 20260906044044 | 27 | 254 | 1.6 | 3.2 | 0.00 | 0.00 | 0.00 | 87 | 1010.4 |
| 20260906043539 | 27 | 153 | 0.0 | 4.8 | 0.00 | 0.00 | 0.00 | 87 | 1010.4 |
| 20260906043036 | 27 | 140 | 1.6 | 3.2 | 0.00 | 0.00 | 0.00 | 88 | 1010.4 |
| 20260906042534 | 27 | 167 | 0.0 | 4.8 | 0.00 | 0.00 | 0.00 | 88 | 1010.7 |
| 20260906042029 | 27 | 177 | 1.6 | 3.2 | 0.00 | 0.00 | 0.00 | 89 | 1010.5 |
| 20260906041525 | 27 | 23 | 0.0 | 1.6 | 0.00 | 0.00 | 0.00 | 89 | 1010.5 |
| 20260906041025 | 27 | 51 | 0.0 | 3.2 | 0.00 | 0.00 | 0.00 | 90 | 1010.5 |
| 20260906040520 | 27 | 175 | 0.0 | 3.2 | 0.00 | 0.00 | 0.00 | 90 | 1010.4 |
| 20260906040016 | 27 | 255 | 1.6 | 1.6 | 0.00 | 0.05 | 0.05 | 91 | 1010.7 |
| 20260906035511 | 27 | 178 | 1.6 | 3.2 | 0.00 | 0.05 | 0.05 | 91 | 1010.7 |
| 20260906035007 | 27 | 20 | 1.6 | 1.6 | 0.00 | 0.05 | 0.05 | 91 | 1010.6 |
| 20260906034506 | 27 | 288 | 0.0 | 1.6 | 0.00 | 0.05 | 0.05 | 92 | 1010.9 |
| 20260906034001 | 27 | 115 | 0.0 | 0.0 | 0.00 | 0.05 | 0.05 | 92 | 1010.9 |
| 20260906033456 | 27 | 158 | 3.2 | 3.2 | 0.00 | 0.05 | 0.05 | 92 | 1010.8 |
| 20260906032952 | 27 | 25 | 0.0 | 3.2 | 0.00 | 0.05 | 0.05 | 91 | 1010.8 |
| 20260906032448 | 27 | 161 | 0.0 | 1.6 | 0.00 | 0.05 | 0.05 | 91 | 1010.8 |
| 20260906031943 | 27 | 174 | 0.0 | 1.6 | 0.00 | 0.05 | 0.05 | 91 | 1010.8 |
| 20260906031438 | 27 | 289 | 6.4 | 6.4 | 0.00 | 0.05 | 0.05 | 91 | 1011.0 |
| 20260906030933 | 27 | 177 | 0.0 | 4.8 | 0.00 | 0.05 | 0.05 | 90 | 1010.9 |
| 20260906030428 | 27 | 241 | 0.0 | 4.8 | 0.00 | 0.05 | 0.05 | 90 | 1011.1 |
| 20260906025922 | 27 | 283 | 3.2 | 3.2 | 0.00 | 0.05 | 0.05 | 90 | 1011.0 |
| 20260906025417 | 27 | 193 | 3.2 | 4.8 | 0.00 | 0.05 | 0.05 | 90 | 1011.2 |
| 20260906024916 | 27 | 278 | 0.0 | 3.2 | 0.00 | 0.05 | 0.05 | 89 | 1011.1 |
| 20260906024415 | 27 | 292 | 0.0 | 1.6 | 0.00 | 0.05 | 0.05 | 89 | 1011.3 |
| 20260906023910 | 27 | 60 | 1.6 | 1.6 | 0.00 | 0.05 | 0.05 | 89 | 1011.2 |
| 20260906023407 | 27 | 70 | 0.0 | 3.2 | 0.00 | 0.05 | 0.05 | 88 | 1011.0 |
| 20260906022906 | 27 | 56 | 0.0 | 3.2 | 0.00 | 0.05 | 0.05 | 88 | 1011.0 |
| 20260906022401 | 27 | 294 | 0.0 | 3.2 | 0.00 | 0.05 | 0.05 | 88 | 1010.9 |
| 20260906021857 | 27 | 70 | 0.0 | 3.2 | 0.00 | 0.05 | 0.05 | 88 | 1010.9 |
| 20260906021356 | 27 | 308 | 3.2 | 3.2 | 0.00 | 0.05 | 0.05 | 88 | 1010.8 |
| 20260906020851 | 27 | 62 | 3.2 | 3.2 | 0.00 | 0.05 | 0.05 | 87 | 1010.9 |
| 20260906020351 | 27 | 210 | 0.0 | 6.4 | 0.00 | 0.05 | 0.05 | 87 | 1010.9 |
| 20260906015846 | 27 | 311 | 0.0 | 3.2 | 0.00 | 0.05 | 0.05 | 86 | 1011.2 |
| 20260906015345 | 27 | 229 | 0.0 | 6.4 | 0.00 | 0.05 | 0.05 | 86 | 1010.7 |
| 20260906014844 | 27 | 246 | 3.2 | 3.2 | 0.00 | 0.05 | 0.05 | 85 | 1010.5 |
| 20260906014339 | 27 | 10 | 0.0 | 4.8 | 0.00 | 0.05 | 0.05 | 85 | 1010.7 |
| 20260906013836 | 27 | 262 | 1.6 | 3.2 | 0.00 | 0.05 | 0.05 | 84 | 1010.5 |
| 20260906013331 | 27 | 70 | 0.0 | 8.0 | 0.00 | 0.05 | 0.05 | 84 | 1010.4 |
| 20260906012826 | 27 | 274 | 0.0 | 1.6 | 0.00 | 0.05 | 0.05 | 83 | 1010.3 |
| 20260906012321 | 27 | 248 | 0.0 | 4.8 | 0.00 | 0.05 | 0.05 | 83 | 1010.1 |
| 20260906011815 | 27 | 259 | 1.6 | 1.6 | 0.00 | 0.05 | 0.05 | 82 | 1010.1 |
| 20260906011315 | 27 | 314 | 1.6 | 3.2 | 0.00 | 0.05 | 0.05 | 82 | 1010.1 |
| 20260906010812 | 27 | 250 | 0.0 | 3.2 | 0.00 | 0.05 | 0.05 | 81 | 1010.0 |
| 20260906010308 | 27 | 31 | 0.0 | 3.2 | 0.00 | 0.05 | 0.05 | 81 | 1010.0 |
| 20260906005802 | 27 | 100 | 1.6 | 4.8 | 0.00 | 0.05 | 0.05 | 81 | 1010.0 |
| 20260906005301 | 27 | 98 | 0.0 | 1.6 | 0.00 | 0.05 | 0.05 | 80 | 1010.1 |
| 20260906004800 | 28 | 110 | 0.0 | 3.2 | 0.00 | 0.05 | 0.05 | 80 | 1010.0 |
| 20260906004255 | 28 | 36 | 0.0 | 1.6 | 0.00 | 0.05 | 0.05 | 79 | 1010.0 |
| 20260906003750 | 28 | 30 | 0.0 | 1.6 | 0.00 | 0.05 | 0.05 | 79 | 1009.8 |
| 20260906003246 | 28 | 26 | 0.0 | 1.6 | 0.00 | 0.05 | 0.05 | 79 | 1009.7 |
| 20260906002741 | 28 | 295 | 0.0 | 3.2 | 0.00 | 0.05 | 0.05 | 79 | 1009.5 |
| 20260906002240 | 28 | 303 | 0.0 | 1.6 | 0.00 | 0.05 | 0.05 | 79 | 1009.8 |
| 20260906001736 | 28 | 73 | 0.0 | 3.2 | 0.00 | 0.05 | 0.05 | 78 | 1009.4 |
| 20260906001231 | 28 | 47 | 0.0 | 0.0 | 0.00 | 0.05 | 0.05 | 78 | 1009.5 |
| 20260906000727 | 28 | 84 | 0.0 | 1.6 | 0.00 | 0.05 | 0.05 | 78 | 1009.3 |
| 20260906000226 | 28 | 56 | 0.0 | 1.6 | 0.00 | 0.05 | 0.05 | 78 | 1009.4 |
| 20260905235721 | 28 | 219 | 3.2 | 3.2 | 0.00 | 0.05 | 0.05 | 78 | 1009.4 |
| 20260905235216 | 28 | 144 | 0.0 | 0.0 | 0.00 | 0.05 | 0.05 | 77 | 1009.5 |
| 20260905234711 | 28 | 70 | 0.0 | 0.0 | 0.00 | 0.05 | 0.05 | 77 | 1009.3 |
| 20260905234207 | 29 | 311 | 0.0 | 1.6 | 0.00 | 0.05 | 0.05 | 76 | 1009.3 |
| 20260905233702 | 29 | 70 | 0.0 | 0.0 | 0.00 | 0.05 | 0.05 | 75 | 1009.4 |
| 20260905233201 | 29 | 218 | 0.0 | 3.2 | 0.00 | 0.05 | 0.05 | 75 | 1009.5 |
| 20260905232656 | 29 | 93 | 0.0 | 3.2 | 0.00 | 0.05 | 0.05 | 76 | 1009.5 |
| 20260905232152 | 30 | 47 | 0.0 | 1.6 | 0.00 | 0.05 | 0.05 | 75 | 1009.4 |
| 20260905231647 | 30 | 36 | 0.0 | 3.2 | 0.00 | 0.05 | 0.05 | 73 | 1009.5 |
| 20260905231143 | 30 | 34 | 0.0 | 1.6 | 0.00 | 0.05 | 0.05 | 72 | 1009.6 |
| 20260905230639 | 30 | 67 | 4.8 | 6.4 | 0.00 | 0.05 | 0.05 | 71 | 1009.4 |
| 20260905230136 | 30 | 114 | 4.8 | 4.8 | 0.00 | 0.05 | 0.05 | 72 | 1009.7 |
| 20260905225631 | 30 | 268 | 3.2 | 4.8 | 0.00 | 0.05 | 0.05 | 72 | 1009.5 |
| 20260905225126 | 30 | 121 | 3.2 | 6.4 | 0.00 | 0.05 | 0.05 | 73 | 1009.7 |
| 20260905224625 | 30 | 46 | 1.6 | 4.8 | 0.00 | 0.05 | 0.05 | 73 | 1009.7 |
| 20260905224125 | 30 | 176 | 0.0 | 4.8 | 0.00 | 0.05 | 0.05 | 72 | 1009.8 |
| 20260905223622 | 30 | 298 | 0.0 | 6.4 | 0.00 | 0.05 | 0.05 | 72 | 1010.0 |
| 20260905223118 | 30 | 271 | 0.0 | 6.4 | 0.00 | 0.05 | 0.05 | 71 | 1009.9 |
| 20260905222619 | 31 | 206 | 0.0 | 3.2 | 0.00 | 0.05 | 0.05 | 72 | 1009.9 |
| 20260905222114 | 31 | 228 | 0.0 | 1.6 | 0.00 | 0.05 | 0.05 | 72 | 1010.0 |
| 20260905221610 | 30 | 48 | 0.0 | 3.2 | 0.00 | 0.05 | 0.05 | 71 | 1009.8 |
| 20260905221106 | 31 | 83 | 3.2 | 4.8 | 0.00 | 0.05 | 0.05 | 72 | 1010.1 |
| 20260905220601 | 30 | 127 | 0.0 | 1.6 | 0.00 | 0.05 | 0.05 | 72 | 1010.0 |
| 20260905220057 | 30 | 51 | 0.0 | 4.8 | 0.00 | 0.05 | 0.05 | 70 | 1010.1 |
| 20260905215556 | 31 | 70 | 0.0 | 8.0 | 0.00 | 0.05 | 0.05 | 70 | 1010.0 |
| 20260905215052 | 31 | 96 | 3.2 | 3.2 | 0.00 | 0.05 | 0.05 | 70 | 1009.9 |
| 20260905214548 | 31 | 286 | 0.0 | 4.8 | 0.00 | 0.05 | 0.05 | 70 | 1010.0 |
| 20260905214043 | 30 | 142 | 1.6 | 3.2 | 0.00 | 0.05 | 0.05 | 72 | 1009.9 |
| 20260905213538 | 30 | 171 | 0.0 | 3.2 | 0.00 | 0.05 | 0.05 | 73 | 1010.0 |
| 20260905213034 | 30 | 170 | 3.2 | 3.2 | 0.00 | 0.05 | 0.05 | 73 | 1010.1 |
| 20260905212528 | 30 | 201 | 0.0 | 4.8 | 0.00 | 0.05 | 0.05 | 72 | 1010.2 |
| 20260905212028 | 30 | 214 | 1.6 | 1.6 | 0.00 | 0.05 | 0.05 | 73 | 1010.1 |
| 20260905211523 | 30 | 58 | 1.6 | 3.2 | 0.00 | 0.05 | 0.05 | 72 | 1010.0 |
| 20260905211019 | 30 | 256 | 3.2 | 4.8 | 0.00 | 0.05 | 0.05 | 72 | 1010.2 |
| 20260905210515 | 30 | 78 | 4.8 | 4.8 | 0.00 | 0.05 | 0.05 | 71 | 1010.2 |
| 20260905210014 | 30 | 308 | 1.6 | 4.8 | 0.00 | 0.05 | 0.05 | 72 | 1010.2 |
| 20260905205509 | 30 | 88 | 1.6 | 6.4 | 0.00 | 0.05 | 0.05 | 72 | 1010.4 |
| 20260905205008 | 30 | 47 | 1.6 | 3.2 | 0.00 | 0.05 | 0.05 | 72 | 1010.1 |
| 20260905204503 | 30 | 85 | 3.2 | 6.4 | 0.00 | 0.05 | 0.05 | 72 | 1010.2 |
| 20260905204003 | 30 | 63 | 3.2 | 4.8 | 0.00 | 0.05 | 0.05 | 72 | 1010.4 |
| 20260905203458 | 30 | 50 | 4.8 | 4.8 | 0.00 | 0.05 | 0.05 | 72 | 1010.1 |
| 20260905202953 | 30 | 146 | 1.6 | 4.8 | 0.00 | 0.05 | 0.05 | 72 | 1010.0 |
| 20260905202448 | 30 | 215 | 1.6 | 4.8 | 0.00 | 0.05 | 0.05 | 72 | 1010.0 |
| 20260905201944 | 30 | 102 | 3.2 | 4.8 | 0.00 | 0.05 | 0.05 | 71 | 1010.0 |
| 20260905201439 | 31 | 197 | 0.0 | 4.8 | 0.00 | 0.05 | 0.05 | 70 | 1010.4 |
| 20260905200933 | 31 | 188 | 0.0 | 3.2 | 0.00 | 0.05 | 0.05 | 68 | 1010.1 |
| 20260905200429 | 31 | 72 | 1.6 | 8.0 | 0.00 | 0.05 | 0.05 | 67 | 1010.1 |
| 20260905195927 | 32 | 120 | 3.2 | 4.8 | 0.00 | 0.05 | 0.05 | 65 | 1010.4 |
| 20260905195422 | 32 | 92 | 0.0 | 3.2 | 0.00 | 0.05 | 0.05 | 64 | 1010.1 |
| 20260905194918 | 32 | 152 | 1.6 | 6.4 | 0.00 | 0.05 | 0.05 | 63 | 1010.4 |
| 20260905194417 | 32 | 350 | 3.2 | 4.8 | 0.00 | 0.05 | 0.05 | 63 | 1010.4 |
| 20260905193917 | 33 | 306 | 11.3 | 11.3 | 0.00 | 0.05 | 0.05 | 60 | 1010.2 |
| 20260905193412 | 33 | 280 | 1.6 | 6.4 | 0.00 | 0.05 | 0.05 | 62 | 1010.3 |
| 20260905192907 | 32 | 25 | 3.2 | 8.0 | 0.00 | 0.05 | 0.05 | 63 | 1010.2 |
| 20260905192403 | 32 | 148 | 1.6 | 4.8 | 0.00 | 0.05 | 0.05 | 64 | 1010.2 |
| 20260905191857 | 32 | 358 | 4.8 | 11.3 | 0.00 | 0.05 | 0.05 | 64 | 1010.5 |
| 20260905191356 | 33 | 350 | 4.8 | 9.7 | 0.00 | 0.05 | 0.05 | 63 | 1010.8 |
| 20260905190855 | 33 | 3 | 3.2 | 4.8 | 0.00 | 0.05 | 0.05 | 64 | 1011.0 |
| 20260905190348 | 32 | 0 | 8.0 | 9.7 | 0.00 | 0.05 | 0.05 | 65 | 1010.9 |
| 20260905185848 | 32 | 351 | 4.8 | 6.4 | 0.00 | 0.05 | 0.05 | 65 | 1010.7 |
| 20260905185343 | 32 | 339 | 1.6 | 6.4 | 0.00 | 0.05 | 0.05 | 67 | 1010.8 |
| 20260905184842 | 32 | 323 | 6.4 | 8.0 | 0.00 | 0.05 | 0.05 | 66 | 1010.8 |
| 20260905184341 | 32 | 336 | 4.8 | 9.7 | 0.00 | 0.05 | 0.05 | 65 | 1010.8 |
| 20260905183840 | 32 | 321 | 3.2 | 8.0 | 0.00 | 0.05 | 0.05 | 63 | 1010.9 |
| 20260905183335 | 32 | 298 | 6.4 | 9.7 | 0.00 | 0.05 | 0.05 | 65 | 1011.0 |
| 20260905182830 | 32 | 296 | 4.8 | 9.7 | 0.00 | 0.05 | 0.05 | 66 | 1011.0 |
| 20260905182329 | 32 | 303 | 8.0 | 8.0 | 0.00 | 0.05 | 0.05 | 64 | 1011.0 |
| 20260905181825 | 32 | 30 | 1.6 | 8.0 | 0.00 | 0.05 | 0.05 | 69 | 1011.0 |
| 20260905181324 | 31 | 297 | 4.8 | 6.4 | 0.00 | 0.05 | 0.05 | 70 | 1011.1 |
| 20260905180823 | 31 | 312 | 3.2 | 8.0 | 0.00 | 0.05 | 0.05 | 72 | 1011.3 |
| 20260905180319 | 31 | 351 | 6.4 | 6.4 | 0.00 | 0.05 | 0.05 | 73 | 1011.5 |
| 20260905175814 | 30 | 79 | 0.0 | 3.2 | 0.00 | 0.05 | 0.05 | 75 | 1011.6 |
| 20260905175308 | 30 | 303 | 1.6 | 3.2 | 0.00 | 0.05 | 0.05 | 79 | 1011.5 |
| 20260905174803 | 29 | 201 | 0.0 | 3.2 | 0.00 | 0.05 | 0.05 | 77 | 1011.5 |
| 20260905174300 | 28 | 324 | 3.2 | 3.2 | 0.00 | 0.05 | 0.05 | 81 | 1011.5 |
| 20260905173755 | 29 | 124 | 3.2 | 4.8 | 0.05 | 0.05 | 0.05 | 75 | 1011.7 |
| 20260905173251 | 30 | 106 | 4.8 | 6.4 | 0.00 | 0.05 | 0.05 | 73 | 1011.5 |
| 20260905172750 | 30 | 292 | 8.0 | 9.7 | 0.00 | 0.05 | 0.05 | 74 | 1011.7 |
| 20260905172249 | 31 | 320 | 4.8 | 11.3 | 0.00 | 0.05 | 0.05 | 71 | 1012.0 |
| 20260905171745 | 32 | 36 | 3.2 | 11.3 | 0.00 | 0.05 | 0.05 | 68 | 1012.0 |
| 20260905171242 | 32 | 354 | 3.2 | 8.0 | 0.00 | 0.05 | 0.05 | 68 | 1011.9 |
| 20260905170738 | 31 | 15 | 4.8 | 4.8 | 0.00 | 0.05 | 0.05 | 70 | 1011.9 |
| 20260905170233 | 31 | 341 | 4.8 | 8.0 | 0.13 | 0.05 | 0.05 | 75 | 1012.1 |
| 20260905165732 | 31 | 33 | 4.8 | 6.4 | 0.13 | 0.05 | 0.05 | 75 | 1012.1 |
| 20260905165228 | 32 | 11 | 4.8 | 9.7 | 0.00 | 0.03 | 0.03 | 69 | 1012.2 |
| 20260905164728 | 32 | 331 | 4.8 | 8.0 | 0.00 | 0.03 | 0.03 | 64 | 1012.4 |
| 20260905164223 | 32 | 308 | 8.0 | 8.0 | 0.00 | 0.03 | 0.03 | 65 | 1012.4 |
| 20260905163719 | 32 | 358 | 1.6 | 9.7 | 0.00 | 0.03 | 0.03 | 64 | 1012.5 |
| 20260905163215 | 31 | 48 | 3.2 | 4.8 | 0.00 | 0.03 | 0.03 | 67 | 1012.5 |
| 20260905162711 | 31 | 210 | 0.0 | 8.0 | 0.00 | 0.03 | 0.03 | 70 | 1012.6 |
| 20260905162210 | 31 | 335 | 3.2 | 8.0 | 0.00 | 0.03 | 0.03 | 68 | 1012.7 |
| 20260905161705 | 31 | 299 | 4.8 | 9.7 | 0.00 | 0.03 | 0.03 | 70 | 1012.8 |
| 20260905161203 | 31 | 354 | 4.8 | 6.4 | 0.00 | 0.03 | 0.03 | 70 | 1012.8 |
| 20260905160656 | 31 | 4 | 4.8 | 8.0 | 0.00 | 0.03 | 0.03 | 73 | 1012.7 |
| 20260905160155 | 30 | 297 | 8.0 | 11.3 | 0.00 | 0.03 | 0.03 | 74 | 1013.2 |
| 20260905155650 | 30 | 322 | 1.6 | 9.7 | 0.00 | 0.03 | 0.03 | 75 | 1012.8 |
| 20260905155149 | 30 | 288 | 3.2 | 11.3 | 0.00 | 0.03 | 0.03 | 75 | 1013.2 |
| 20260905154644 | 30 | 328 | 6.4 | 6.4 | 0.00 | 0.03 | 0.03 | 76 | 1012.9 |
| 20260905154139 | 30 | 62 | 0.0 | 4.8 | 0.00 | 0.03 | 0.03 | 80 | 1013.2 |
| 20260905153635 | 30 | 329 | 3.2 | 6.4 | 0.00 | 0.03 | 0.03 | 82 | 1013.2 |
| 20260905153130 | 29 | 14 | 3.2 | 6.4 | 0.00 | 0.03 | 0.03 | 83 | 1013.3 |
| 20260905152625 | 28 | 33 | 1.6 | 1.6 | 0.05 | 0.03 | 0.03 | 86 | 1013.4 |
| 20260905152120 | 28 | 35 | 3.2 | 3.2 | 0.13 | 0.03 | 0.03 | 85 | 1013.3 |
| 20260905151615 | 28 | 15 | 3.2 | 6.4 | 0.00 | 0.00 | 0.00 | 84 | 1013.3 |
| 20260905151111 | 28 | 42 | 3.2 | 6.4 | 0.00 | 0.00 | 0.00 | 82 | 1013.5 |
| 20260905150606 | 28 | 289 | 3.2 | 8.0 | 0.00 | 0.00 | 0.00 | 81 | 1013.3 |
| 20260905150104 | 29 | 338 | 1.6 | 4.8 | 0.00 | 0.00 | 0.00 | 81 | 1013.4 |
| 20260905145603 | 28 | 126 | 0.0 | 4.8 | 0.00 | 0.00 | 0.00 | 83 | 1013.5 |
| 20260905145102 | 28 | 138 | 4.8 | 6.4 | 0.00 | 0.00 | 0.00 | 81 | 1013.3 |
| 20260905144557 | 28 | 73 | 0.0 | 4.8 | 0.00 | 0.00 | 0.00 | 81 | 1013.3 |
| 20260905144056 | 28 | 344 | 3.2 | 4.8 | 0.00 | 0.00 | 0.00 | 82 | 1013.3 |
| 20260905143555 | 28 | 348 | 4.8 | 4.8 | 0.00 | 0.00 | 0.00 | 83 | 1013.1 |
| 20260905143051 | 28 | 36 | 0.0 | 6.4 | 0.00 | 0.00 | 0.00 | 84 | 1013.4 |
| 20260905142549 | 28 | 270 | 3.2 | 6.4 | 0.00 | 0.00 | 0.00 | 84 | 1013.3 |
| 20260905142044 | 28 | 134 | 3.2 | 3.2 | 0.00 | 0.00 | 0.00 | 84 | 1013.5 |
| 20260905141539 | 28 | 330 | 6.4 | 6.4 | 0.00 | 0.00 | 0.00 | 82 | 1013.3 |
| 20260905141035 | 28 | 24 | 4.8 | 4.8 | 0.00 | 0.00 | 0.00 | 84 | 1013.3 |
| 20260905140530 | 28 | 47 | 0.0 | 3.2 | 0.00 | 0.00 | 0.00 | 84 | 1013.4 |
| 20260905140029 | 28 | 357 | 4.8 | 8.0 | 0.00 | 0.00 | 0.00 | 84 | 1013.5 |
| 20260905135525 | 28 | 278 | 0.0 | 3.2 | 0.00 | 0.00 | 0.00 | 85 | 1013.5 |
| 20260905135019 | 28 | 135 | 3.2 | 3.2 | 0.00 | 0.00 | 0.00 | 86 | 1013.2 |
| 20260905134514 | 28 | 306 | 3.2 | 6.4 | 0.00 | 0.00 | 0.00 | 86 | 1013.1 |
| 20260905134013 | 27 | 345 | 4.8 | 6.4 | 0.00 | 0.00 | 0.00 | 87 | 1013.0 |
| 20260905133509 | 27 | 295 | 3.2 | 6.4 | 0.00 | 0.00 | 0.00 | 88 | 1012.9 |
| 20260905133008 | 27 | 284 | 4.8 | 4.8 | 0.00 | 0.00 | 0.00 | 88 | 1013.3 |
| 20260905132503 | 27 | 312 | 3.2 | 3.2 | 0.00 | 0.00 | 0.00 | 88 | 1013.1 |
| 20260905132003 | 27 | 159 | 3.2 | 4.8 | 0.00 | 0.00 | 0.00 | 89 | 1013.0 |
| 20260905131458 | 27 | 333 | 3.2 | 4.8 | 0.00 | 0.00 | 0.00 | 89 | 1013.3 |
| 20260905130954 | 27 | 306 | 3.2 | 4.8 | 0.00 | 0.00 | 0.00 | 89 | 1013.2 |
| 20260905130453 | 27 | 343 | 4.8 | 4.8 | 0.00 | 0.00 | 0.00 | 90 | 1013.4 |
| 20260905125952 | 26 | 320 | 4.8 | 4.8 | 0.00 | 0.00 | 0.00 | 90 | 1013.2 |
| 20260905125447 | 26 | 292 | 1.6 | 4.8 | 0.00 | 0.00 | 0.00 | 90 | 1013.2 |
| 20260905124943 | 26 | 132 | 3.2 | 6.4 | 0.00 | 0.00 | 0.00 | 89 | 1013.4 |
| 20260905124439 | 26 | 242 | 0.0 | 4.8 | 0.00 | 0.00 | 0.00 | 90 | 1013.0 |
| 20260905123934 | 26 | 193 | 0.0 | 6.4 | 0.00 | 0.00 | 0.00 | 91 | 1013.3 |
| 20260905123431 | 26 | 161 | 1.6 | 3.2 | 0.00 | 0.00 | 0.00 | 91 | 1013.1 |
| 20260905122926 | 26 | 47 | 0.0 | 1.6 | 0.00 | 0.00 | 0.00 | 92 | 1013.0 |
| 20260905122425 | 26 | 136 | 3.2 | 6.4 | 0.00 | 0.00 | 0.00 | 92 | 1013.0 |
| 20260905121921 | 26 | 223 | 0.0 | 1.6 | 0.00 | 0.00 | 0.00 | 93 | 1013.1 |
| 20260905121417 | 26 | 239 | 3.2 | 3.2 | 0.00 | 0.00 | 0.00 | 93 | 1013.3 |
| 20260905120915 | 26 | 10 | 3.2 | 3.2 | 0.00 | 0.00 | 0.00 | 94 | 1012.8 |
| 20260905120416 | 25 | 31 | 1.6 | 3.2 | 0.00 | 0.00 | 0.00 | 94 | 1012.8 |
| 20260905115911 | 25 | 98 | 1.6 | 1.6 | 0.00 | 0.00 | 0.00 | 95 | 1012.7 |
| 20260905115410 | 25 | 270 | 0.0 | 0.0 | 0.00 | 0.00 | 0.00 | 95 | 1012.6 |
| 20260905114905 | 25 | 216 | 0.0 | 0.0 | 0.00 | 0.00 | 0.00 | 95 | 1012.6 |
| 20260905114404 | 25 | 170 | 0.0 | 0.0 | 0.00 | 0.00 | 0.00 | 95 | 1012.4 |